CAPE
32 38 8 1 4 35 31 2 0 9 2 0 9 0 7 247 433 723 530 328 434 606 671 596 450 327 139 160 133 140 113 65 385 487 529 534 410 465 623 442 397 351 363 310
26 131 34 0 0 12 17 25 0 297 470 1 0 0 48 46 71 1196 956 689 567 577 572 489 365 458 301 290 214 121 94 160 168 65 85 105 137 107 114 138 209 240 206 284
134 96 51 30 9 10 53 3 0 206 497 480 69 309 248 0 0 769 774 778 612 643 685 593 619 379 56 82 113 30 48 76 72 68 101 148 257 326 341 295 253 273 305 345
81 34 40 25 7 22 12 0 0 352 537 503 719 417 883 55 0 544 561 559 461 409 599 250 85 0 0 0 0 48 97 322 316 300 234 276 322 195 42 62 50 56 46 46
0 0 0 0 0 0 0 10 2 213 439 634 887 648 612 535 655 573 467 208 175 27 2 0 4 5 34 70 61 172 324 347 398 303 77 19 22 30 46 49 29 4 0 0
0 0 0 0 0 0 0 0 0 295 149 38 358 400 476 84 701 437 163 10 0 0 0 0 0 0 0 0 0 0 0 0 5 41 80 38 37 46 25 21 27 35 31 36
0 12 3 80 0 0 27 205 204 221 265 252 271 85 34 0 0 0 0 0 0 0 0 0 0 0 0 0 0 0 0 0 0 0 5 11 7 6 5 3 6 10 14 9
1 129 294 160 152 367 292 241 55 61 236 141 39 0 0 0 0 0 0 0 0 0 0 0 0 0 0 0 0 0 0 0 0 0 0 5 0 0 0 10 13 7 6 3
1 592 195 84 0 151 62 16 9 0 0 0 0 0 0 0 0 0 0 0 0 0 0 0 0 0 0 0 0 0 0 2 2 8 1 0 0 0 0 0 1 21 21 5
8 209 44 0 25 22 0 0 0 0 0 0 0 0 0 0 0 0 0 0 0 0 0 0 0 0 0 0 1 0 0 0 0 0 1 0 0 0 1 5 23 41 39 35
2 144 20 124 10 0 0 0 0 0 0 0 0 0 0 0 0 0 0 0 0 0 0 0 0 0 0 0 0 0 1 0 0 1 1 0 1 3 1 3 8 14 25 2
145 559 373 84 0 0 0 0 0 0 0 0 0 0 0 0 0 0 0 0 0 0 0 0 2 0 0 0 1 2 7 7 5 6 5 0 3 3 6 16 2 0 0 0
447 226 54 0 0 0 0 0 0 0 0 0 0 0 0 0 0 0 0 0 0 0 1 5 1 1 0 1 5 0 0 6 3 1 3 2 0 0 2 1 6 4 0 0
235 88 1 0 0 0 0 0 0 0 0 0 0 0 0 0 0 0 0 0 0 0 0 2 3 2 0 0 0 0 0 0 0 1 7 15 22 17 20 18 10 8 7 5
128 140 35 0 0 0 0 0 0 0 0 0 0 0 0 0 0 0 0 0 0 0 0 0 0 0 0 0 0 0 0 0 0 4 7 15 27 21 22 25 37 21 10 16
0 0 0 0 0 0 0 0 0 0 0 0 0 0 0 0 0 0 0 0 0 0 0 0 0 0 0 0 0 0 0 1 6 4 7 13 23 20 29 8 8 12 4 5
6 5 0 0 0 0 0 0 0 0 0 0 0 0 0 0 0 0 0 0 0 0 0 0 0 0 0 0 0 0 0 0 5 1 8 10 16 12 15 19 16 25 10 2
218 87 21 2 0 0 0 0 0 0 0 0 0 0 0 0 0 0 0 0 0 1 0 0 0 0 0 0 0 0 0 0 0 7 13 14 16 25 22 21 19 27 8 1
0 0 0 0 0 0 0 0 0 0 0 0 0 0 0 0 0 0 0 0 0 0 0 0 0 0 0 0 0 0 0 0 0 5 7 15 10 12 13 15 22 21 10 12
0 0 0 0 0 0 0 0 0 0 0 0 0 0 0 0 0 0 0 0 0 0 0 0 0 0 0 0 0 0 0 0 0 2 3 9 5 9 11 9 14 16 13 15
0 0 0 0 0 0 0 0 0 0 0 0 0 0 0 0 0 0 2 3 4 0 0 0 0 0 0 0 0 0 0 0 0 2 4 4 3 4 5 9 11 13 15 12
0 0 0 0 0 0 0 0 0 0 0 0 0 0 0 0 0 9 25 0 0 0 0 0 0 0 0 0 0 0 0 0 0 1 2 3 2 2 3 7 9 12 12 12
0 0 0 0 0 0 0 0 0 0 0 0 0 0 0 0 0 1 0 0 0 0 0 0 0 0 0 0 0 0 0 0 0 1 1 2 2 3 4 4 3 9 9 8
0 0 0 0 0 0 0 0 0 0 0 0 0 0 0 0 0 2 0 0 0 0 0 0 0 0 0 0 0 0 0 0 0 0 2 0 2 3 4 7 9 9 10 9
0 0 0 0 0 0 0 2 18 19 0 1 0 0 0 4 13 4 7 27 9 0 0 0 0 0 0 0 0 0 0 0 0 0 1 1 2 3 3 4 6 8 8 9
0 0 0 0 0 0 11 27 30 27 10 0 0 2 1 15 6 3 15 17 15 0 0 0 0 0 0 0 0 0 0 0 0 0 0 1 1 2 2 2 3 4 6 6
0 0 0 0 0 2 5 3 0 0 0 0 0 0 13 23 31 11 11 15 26 0 0 0 0 0 0 0 0 0 0 0 0 0 0 0 0 1 1 1 2 2 3 4
CIN
-168 -176 -246 -178 -176 -216 -212 -112 -0 -19 -65 -0 -92 -41 -89 -476 -260 -152 -162 -318 -367 -361 -322 -294 -291 -298 -363 -312 -337 -320 -301 -289 -169 -150 -137 -138 -154 -147 -110 -121 -105 -82 -59 -56
-172 -188 -216 -0 -0 -158 -185 -130 -0 -61 -67 -6 -2 -0 -386 -364 -321 -150 -79 -183 -256 -251 -239 -223 -230 -188 -213 -208 -238 -256 -217 -179 -202 -265 -234 -217 -198 -205 -194 -158 -106 -84 -72 -44
-64 -172 -175 -157 -121 -150 -148 -212 -0 -57 -66 -158 -384 -347 -408 -0 -0 -69 -55 -42 -98 -104 -141 -119 -101 -192 -462 -348 -265 -312 -258 -215 -206 -212 -185 -151 -111 -77 -52 -47 -53 -55 -58 -44
-35 -146 -87 -47 -93 -132 -213 -0 -0 -84 -70 -55 -149 -288 -176 -192 -0 -82 -38 -75 -132 -69 -69 -208 -384 -61 -0 -0 -0 -165 -124 -74 -67 -60 -55 -42 -30 -42 -50 -102 -71 -83 -168 -141
-1 -0 -0 -0 -0 -0 -0 -143 -3 -77 -50 -68 -111 -108 -116 -190 -109 -78 -117 -165 -131 -125 -173 -0 -100 -212 -209 -142 -126 -89 -50 -40 -35 -42 -131 -66 -44 -42 -38 -32 -31 -4 -0 -0
-0 -0 -0 -0 -0 -0 -0 -24 -0 -78 -108 -162 -115 -126 -83 -114 -29 -73 -92 -154 -0 -0 -0 -0 -0 -0 -0 -0 -0 -0 -0 -0 -88 -132 -95 -87 -32 -34 -40 -43 -29 -20 -15 -15
-6 -60 -34 -132 -0 -0 -14 -58 -94 -131 -155 -178 -150 -218 -222 -0 -0 -0 -0 -0 -0 -0 -0 -0 -0 -0 -0 -0 -0 -0 -0 -0 -0 -0 -19 -42 -54 -34 -44 -14 -26 -23 -21 -18
-6 -6 -24 -143 -102 -68 -100 -143 -174 -149 -170 -179 -247 -0 -0 -0 -0 -0 -0 -0 -0 -0 -0 -0 -0 -0 -0 -0 -0 -0 -0 -0 -0 -0 -1 -20 -0 -0 -0 -19 -20 -23 -31 -32
-9 -75 -128 -140 -27 -112 -187 -298 -268 -0 -0 -0 -0 -0 -0 -0 -0 -0 -0 -0 -0 -0 -0 -0 -0 -0 -0 -0 -0 -0 -0 -0 -2 -4 -10 -0 -0 -0 -0 -0 -1 -11 -7 -9
-124 -130 -161 -0 -220 -203 -0 -0 -0 -0 -0 -0 -0 -0 -0 -0 -0 -0 -0 -0 -0 -0 -0 -0 -0 -0 -0 -0 -16 -0 -0 -0 -0 -0 -0 -0 -0 -0 -0 -0 -7 -4 -3 -6
-6 -137 -207 -125 -258 -0 -0 -0 -0 -0 -0 -0 -0 -0 -0 -0 -0 -0 -0 -0 -0 -0 -0 -0 -0 -0 -0 -1 -2 -5 -2 -2 -1 -0 -2 -3 -4 -4 -2 -0 -0 -0 -17 -3
-13 -107 -78 -159 -0 -0 -0 -0 -0 -0 -0 -0 -0 -0 -0 -0 -0 -0 -0 -0 -0 -0 -0 -0 -6 -3 -0 -1 -1 -0 -3 -2 -1 -1 -0 -1 -2 -0 -2 -1 -6 -0 -0 -0
-99 -87 -145 -0 -34 -0 -0 -0 -0 -0 -0 -0 -0 -0 -0 -0 -0 -0 -0 -0 -0 -0 -4 -7 -8 -4 -1 -2 -8 -0 -0 -2 -0 -0 -0 -0 -0 -0 -1 -0 -1 -2 -0 -0
-116 -158 -70 -0 -0 -0 -0 -0 -0 -0 -0 -0 -0 -0 -0 -0 -0 -0 -0 -0 -0 -0 -0 -10 -10 -11 -0 -0 -0 -0 -0 -0 -0 -5 -3 -2 -0 -1 -5 -3 -3 -5 -3 -1
-76 -80 -79 -0 -0 -0 -0 -0 -0 -0 -0 -0 -0 -0 -0 -0 -0 -0 -0 -0 -0 -0 -0 -0 -0 -0 -0 -0 -0 -0 -0 -0 -0 -2 -1 -1 -1 -1 -1 -1 -1 -1 -2 -1
-0 -0 -0 -0 -0 -0 -0 -0 -0 -0 -0 -0 -0 -0 -0 -0 -0 -0 -0 -0 -0 -0 -0 -0 -0 -0 -0 -0 -0 -0 -0 -0 -0 -1 -1 -0 -1 -1 -1 -1 -1 -2 -1 -0
-79 -131 -0 -0 -0 -0 -0 -0 -0 -0 -0 -0 -0 -0 -0 -0 -0 -0 -0 -0 -0 -0 -0 -0 -0 -0 -0 -0 -0 -0 -0 -0 -0 -1 -0 -0 -0 -0 -0 -0 -0 -0 -1 -0
-64 -100 -117 -55 -0 -0 -0 -0 -0 -0 -0 -0 -0 -0 -0 -0 -0 -0 -0 -0 -0 -20 -0 -0 -0 -0 -0 -0 -0 -0 -0 -0 -0 -1 -0 -0 -0 -0 -0 -0 -0 -1 -0 -0
-0 -0 -0 -0 -0 -0 -0 -0 -0 -0 -0 -0 -0 -0 -0 -0 -0 -0 -0 -0 -0 -0 -0 -0 -0 -1 -0 -0 -0 -0 -0 -0 -0 -0 -0 -0 -0 -0 -0 -0 -0 -0 -0 -0
-0 -0 -0 -0 -0 -0 -0 -0 -0 -0 -0 -0 -0 -0 -0 -0 -0 -0 -0 -0 -0 -0 -0 -0 -0 -0 -0 -0 -0 -0 -0 -0 -0 -0 -0 -0 -0 -0 -0 -0 -0 -0 -0 -0
-0 -0 -0 -0 -0 -0 -0 -0 -0 -0 -0 -0 -0 -0 -0 -0 -0 -2 -37 -18 -22 -0 -0 -0 -0 -0 -0 -0 -0 -0 -0 -0 -0 -0 -0 -0 -0 -0 -0 -0 -0 -0 -0 -0
-0 -0 -0 -0 -0 -0 -0 -0 -0 -0 -0 -0 -0 -0 -0 -0 -0 -30 -25 -0 -0 -0 -0 -0 -0 -0 -0 -0 -0 -0 -0 -0 -0 -1 -0 -0 -0 -0 -0 -0 -0 -0 -0 -0
-0 -0 -0 -0 -0 -0 -0 -0 -0 -0 -0 -0 -0 -0 -0 -0 -0 -15 -0 -0 -0 -0 -0 -0 -0 -0 -0 -0 -0 -0 -0 -0 -0 -1 -0 -0 -0 -0 -0 -0 -0 -0 -0 -0
-0 -0 -0 -0 -0 -0 -0 -0 -1 -0 -0 -0 -0 -0 -0 -0 -0 -20 -0 -1 -0 -0 -0 -0 -0 -0 -0 -0 -0 -0 -0 -0 -0 -0 -0 -0 -0 -0 -0 -0 -0 -0 -0 -0
-0 -0 -0 -0 -0 -0 -0 -4 -35 -65 -7 -11 -7 -0 -9 -79 -64 -26 -36 -29 -23 -0 -0 -0 -0 -0 -0 -0 -0 -0 -0 -0 -0 -0 -0 -0 -0 -0 -0 -0 -0 -0 -0 -0
-0 -0 -0 -0 -0 -0 -25 -30 -15 -22 -15 -0 -0 -36 -17 -20 -30 -23 -39 -31 -37 -8 -0 -0 -0 -0 -0 -0 -0 -0 -0 -0 -0 -0 -0 -0 -0 -0 -0 -0 -0 -0 -0 -0
-0 -0 -0 -0 -0 -15 -11 -48 -0 -0 -0 -0 -0 -0 -13 -23 -18 -28 -24 -30 -29 -0 -0 -0 -0 -0 -0 -0 -0 -0 -0 -0 -0 -0 -0 -0 -0 -0 -0 -0 -0 -0 -0 -0
Wind_Speed
6 7 4 3 3 12 16 13 4 8 10 15 12 9 17 21 16 17 8 13 13 11 8 7 6 5 7 6 8 7 7 6 5 5 5 5 4 4 3 4 4 4 5 6
4 2 8 7 6 9 15 17 4 9 7 13 13 6 4 11 9 10 13 10 10 8 8 8 7 5 7 6 5 5 3 2 2 2 2 2 3 4 4 5 5 5 6 7
5 3 7 7 14 2 9 13 7 8 5 14 16 13 15 13 8 11 13 10 13 12 11 8 8 8 5 4 4 3 4 4 4 4 4 5 5 5 5 6 5 6 7 7
5 8 3 11 16 14 9 6 5 12 11 11 15 18 15 11 16 15 11 7 4 5 3 6 7 7 7 6 4 4 5 5 5 5 5 5 4 4 4 4 5 6 7 8
5 1 6 9 9 4 5 6 8 10 10 17 18 20 7 10 5 8 7 5 2 3 4 7 7 6 5 3 1 2 3 2 2 2 2 2 4 5 4 4 5 7 9 10
4 2 2 8 4 8 8 5 6 12 10 10 15 11 2 6 8 8 8 8 7 7 10 14 12 10 10 9 11 9 7 7 7 6 5 5 5 6 4 4 6 6 9 8
2 0 3 9 8 5 5 3 14 14 14 15 12 8 8 8 9 8 10 11 11 15 14 12 12 11 11 11 11 11 9 7 7 7 7 6 5 4 4 6 8 9 10 11
1 0 1 9 9 6 4 8 14 13 10 12 10 12 11 11 11 12 14 15 13 11 10 11 11 10 8 9 8 9 10 9 6 6 6 6 7 5 6 6 8 9 9 9
7 6 4 4 7 8 11 12 9 13 11 12 13 11 10 9 10 13 12 11 10 10 9 9 8 7 6 6 6 8 9 8 9 7 6 6 6 7 7 7 5 5 6 8
7 3 6 8 11 10 12 14 13 12 13 12 10 10 10 10 9 10 11 9 8 9 8 8 8 8 6 7 7 8 9 9 10 11 10 6 7 8 9 9 8 8 7 7
3 5 8 8 11 11 14 13 12 12 12 10 10 10 8 8 9 8 7 8 7 7 6 6 7 7 7 6 6 7 8 9 9 8 10 9 8 7 9 10 11 12 11 9
4 7 7 7 9 13 13 11 9 11 10 10 10 8 9 8 6 7 7 7 6 7 6 6 6 6 7 7 8 10 9 9 8 9 10 10 9 11 9 13 18 16 14 12
6 7 12 10 12 14 13 10 8 10 9 9 8 8 9 6 6 8 7 6 6 5 4 4 4 5 8 8 7 8 9 10 10 11 11 11 12 13 13 11 12 14 16 18
12 13 11 10 9 10 13 9 7 10 9 8 8 8 7 6 6 7 5 4 4 4 4 3 4 4 5 4 6 7 7 13 10 10 10 11 11 10 10 12 13 11 9 11
9 9 10 13 12 10 9 7 6 8 8 8 8 8 7 5 6 5 3 3 3 4 3 6 4 7 7 5 6 7 7 8 10 10 11 13 12 11 11 12 10 9 10 10
10 14 14 13 10 8 8 7 8 7 7 7 8 7 4 5 1 4 2 1 1 5 5 5 6 8 4 6 6 5 7 19 16 11 11 11 10 11 9 10 10 9 10 12
12 10 10 11 9 8 9 8 7 6 7 8 7 4 5 3 2 3 3 4 6 8 6 6 8 5 5 4 6 5 8 10 21 11 11 12 12 12 12 11 10 10 10 12
9 8 10 12 11 10 8 7 6 6 6 8 7 4 2 4 4 2 5 5 6 5 3 4 5 5 2 4 4 4 6 10 11 12 12 12 13 12 11 13 12 11 8 12
14 13 12 12 10 10 8 6 7 7 6 6 6 2 3 3 3 2 5 6 6 2 4 5 10 3 2 3 6 2 6 11 12 11 11 16 12 12 11 11 11 10 10 11
14 14 13 11 10 9 8 6 6 6 6 4 4 5 4 3 4 5 6 7 3 4 4 8 6 4 1 2 6 1 6 10 12 11 11 11 11 11 11 14 12 11 11 10
13 12 10 9 8 8 8 6 6 6 4 5 3 3 1 5 7 7 5 2 4 4 6 9 3 3 3 3 3 1 5 9 10 11 11 11 11 10 10 11 11 10 10 10
10 9 8 9 7 7 7 7 7 5 4 4 2 0 1 7 7 6 3 4 3 8 4 5 3 5 6 7 3 2 5 8 9 10 11 11 11 10 10 10 10 10 10 10
8 8 8 8 7 7 5 5 7 7 6 4 3 4 3 5 5 2 3 5 3 4 4 1 5 8 11 4 4 3 5 6 9 11 11 11 11 10 10 10 10 10 9 9
8 8 7 6 6 6 6 4 6 7 7 7 7 7 5 4 5 2 4 5 5 4 5 4 6 9 10 4 3 3 5 4 7 11 11 15 10 10 10 10 10 9 9 10
8 7 7 6 7 5 6 7 6 7 7 7 8 8 8 6 6 4 4 4 2 4 2 2 9 8 5 3 0 4 4 4 6 10 11 11 11 11 11 10 10 10 10 9
8 5 4 5 4 4 4 4 3 4 4 3 4 5 3 2 4 4 4 5 1 1 3 2 4 4 3 3 4 4 4 3 6 10 11 11 11 11 11 12 11 10 9 9
5 5 5 4 3 3 1 5 5 5 5 3 1 3 3 4 3 3 6 3 0 3 3 3 4 4 3 3 4 5 4 3 6 9 9 10 10 10 11 11 11 10 9 9
Wind_Direction
198 230 186 258 299 320 319 308 49 164 180 194 191 191 158 165 165 285 81 89 94 109 113 91 73 73 81 67 67 73 67 50 39 39 29 21 1 340 332 333 314 302 300 291
226 24 314 326 347 300 302 305 45 81 68 177 163 99 109 165 174 73 288 135 119 126 136 145 147 128 116 117 107 95 86 57 67 49 2 321 313 299 297 284 281 285 286 276
185 39 327 312 238 107 294 294 85 91 116 104 155 172 187 202 165 196 238 156 156 173 170 173 165 161 125 138 130 148 174 211 217 232 244 250 256 271 284 291 296 291 279 268
147 142 180 236 194 204 217 27 55 97 92 75 126 197 177 201 185 168 222 105 71 139 155 121 102 105 110 136 169 195 222 222 229 238 246 261 287 314 322 318 308 294 290 280
103 356 316 351 23 77 115 32 91 113 103 105 91 85 47 121 139 126 112 118 139 92 99 83 79 81 95 94 75 20 345 323 325 62 34 327 299 287 279 284 280 280 282 283
50 58 279 272 127 98 91 20 35 93 105 105 97 87 99 34 81 62 63 72 79 66 52 46 23 36 44 33 47 39 18 2 359 357 340 308 284 277 262 263 262 274 280 278
38 157 78 327 28 37 68 214 43 74 87 87 100 135 142 95 69 71 63 52 52 59 71 51 36 34 39 40 25 2 347 348 338 333 322 314 317 315 288 290 290 281 280 280
278 264 130 318 33 84 194 56 82 63 72 92 88 78 74 66 61 58 57 49 48 56 56 53 41 37 28 34 14 2 353 340 335 330 328 319 308 301 298 286 281 277 277 281
130 178 179 58 95 69 82 81 67 76 55 70 68 65 62 57 52 57 57 56 46 43 43 43 40 39 25 356 358 355 346 337 330 319 315 318 312 301 304 301 286 285 289 287
81 175 132 101 64 74 85 87 73 69 71 63 66 60 56 54 50 57 49 46 46 39 34 20 25 26 10 11 9 1 346 334 328 322 322 331 325 307 298 290 288 290 282 278
100 130 98 96 105 95 79 74 77 72 69 58 60 56 58 57 54 53 42 44 46 44 22 28 17 356 3 18 4 338 326 320 315 314 314 308 290 288 290 286 281 286 284 287
212 160 136 143 117 107 94 83 71 83 72 66 73 67 69 79 64 59 53 40 40 37 22 1 5 5 349 347 346 341 333 329 323 319 316 310 306 311 276 262 282 290 280 275
155 106 105 107 100 103 107 98 75 94 91 93 71 80 69 67 73 69 54 38 35 28 356 352 6 337 349 343 341 332 320 317 317 315 312 311 307 306 304 298 269 278 282 283
102 105 95 98 100 95 104 106 104 100 93 95 97 81 77 68 74 73 50 44 42 344 348 352 323 322 313 318 308 308 302 306 308 304 306 303 295 296 294 293 297 296 279 286
109 113 113 108 93 85 78 76 110 99 100 92 87 84 75 71 83 81 20 320 19 333 334 314 313 285 273 287 292 289 300 308 306 307 305 299 295 295 294 290 287 302 312 303
90 100 109 109 107 109 124 105 89 99 94 90 90 82 74 94 69 83 13 160 71 282 280 283 283 270 250 272 280 302 320 318 317 311 310 309 311 309 306 307 299 293 297 296
122 128 128 123 123 107 99 93 89 101 104 99 99 95 85 60 254 131 267 257 212 246 238 251 263 263 276 313 19 340 327 324 325 319 317 313 305 300 300 290 291 281 281 294
120 117 122 124 124 115 107 111 121 118 110 119 127 130 125 256 113 10 291 298 300 296 141 241 299 274 341 61 12 337 332 336 326 318 313 310 309 304 301 297 291 281 286 291
95 94 91 92 99 101 110 113 102 102 101 110 106 149 222 87 106 289 287 293 310 32 297 304 294 322 104 351 356 341 341 339 320 312 310 312 308 306 300 298 299 296 291 286
97 92 92 91 89 98 97 89 111 105 105 98 90 68 44 9 284 255 266 275 194 213 245 281 315 119 254 301 326 16 338 329 321 312 311 308 306 303 299 295 294 292 288 282
111 109 109 106 101 104 106 97 86 85 75 95 83 103 43 284 284 271 281 314 224 235 254 291 176 210 267 267 299 26 317 323 326 320 315 312 308 302 300 297 294 291 289 288
121 121 123 119 131 136 143 149 139 148 138 127 120 101 291 289 285 288 208 197 245 220 284 285 164 218 258 286 237 239 288 319 330 319 315 313 312 309 302 299 298 297 293 288
128 134 128 135 150 149 159 186 165 151 146 151 177 240 239 257 268 260 305 273 224 258 276 291 208 241 265 261 241 235 275 321 328 322 317 316 314 309 305 301 290 290 293 294
125 128 137 158 141 143 182 208 141 166 170 181 205 227 216 266 289 239 265 273 239 278 278 215 249 258 273 275 186 246 274 302 319 325 320 319 315 314 311 309 305 301 296 293
127 128 141 155 154 182 209 214 204 175 188 198 209 231 233 236 227 261 287 279 259 235 301 229 260 272 271 299 323 257 275 286 316 322 326 324 323 321 317 314 311 309 306 304
130 139 150 179 185 206 218 202 189 176 188 154 219 220 241 309 186 241 289 301 272 329 83 353 333 321 9 20 330 318 291 309 331 332 328 327 324 321 320 319 317 316 314 308
144 160 151 177 228 250 224 119 145 154 113 99 355 327 330 309 313 317 286 310 87 84 66 7 323 336 62 3 349 349 345 47 339 338 335 330 327 326 326 323 324 323 321 323